Location: Killam
(52.7910°N, 111.8608°W)
Time: 14:53:29
(UTC+00:00)

Injun/Solrad 3 - Pass Details

Date: 18 February 2026
Orbit: 872 x 984 km, 66.8° (Epoch: 7 March)

Event Time Altitude Azimuth Distance (km) Brightness Sun altitude
Rises 02:41:58 0° 320° (NW) 3,554 11.6 -18.4°
Reaches altitude 10° 02:44:27 10° 321° (NW) 2,625 10.9 -18.8°
Maximum altitude 02:50:35 82° 49° (NE) 957 7.8 -19.7°
Enters shadow 02:54:07 28° 135° (SE) 1,709 8.8 -20.2°
